Miscellaneous Local Product
Issued by NWS North Platte, NE

Home | Current Version | Previous Version | Graphics & Text | Print | Product List | Glossary On
Versions: 1 2 3 4 5 6 7 8 9 10 11 12 13 14 15 16 17 18 19 20 21 22 23 24 25 26 27 28 29 30 31 32 33 34 35 36 37 38 39 40 41 42 43 44 45 46 47 48 49 50
000
AXUS43 KLBF 301210
MISLBF


WESTERN AND NORTH CENTRAL NEBRASKA HOURLY WEATHER ROUNDUP
NATIONAL WEATHER SERVICE NORTH PLATTE NE
600 AM CST FRI JAN 30 2015

***STATIONS NOT REPORTING VARIABLES SUCH AS SKY/WEATHER OR
PRESSURE ARE PROVIDED BY THE NEBRASKA DEPARTMENT OF
ROADS...RAWS...AND APRS NETWORKS...AND ARE NOT UNDER
NATIONAL WEATHER SERVICE QUALITY CONTROL***

...OBSERVATIONS IN AND NEAR THE EASTERN PANHANDLE OF NEBRASKA...

CITY           SKY/WX    TMP DP  RH WIND       PRES   REMARKS
PINE RIDGE     MOCLDY    32  19  58 SW14      30.24S WCI  22
CHADRON        MOCLDY    34  18  52 S7        30.22F WCI  28
ALLIANCE       CLOUDY    25  21  85 SE5       30.25F WCI  19
SIDNEY         CLOUDY    29  21  72 S6        30.25F WCI  23
WHITECLAY        N/A     32  18  55 S17         N/A  WCI  21
CRESCENT LAKE    N/A     25  19  78 SE6         N/A  WCI  18
LISCO            N/A     32  18  55 E8          N/A  WCI  25
LEWELLEN         N/A     30  22  73 S6          N/A  WCI  24
$$

...OBSERVATIONS IN NORTH CENTRAL NEBRASKA...

CITY           SKY/WX    TMP DP  RH WIND       PRES   REMARKS
VALENTINE      PTCLDY    20  16  84 SE3       30.32F
THEDFORD       MOCLDY    29  21  72 CALM      30.33F
AINSWORTH      CLEAR     23  19  85 S10       30.34F WCI  12
O`NEILL        PTCLDY    20  19  94 S9        30.42F WCI   9
ORD            CLEAR     20  16  84 S6        30.43F WCI  12
BROKEN BOW     PTCLDY    22  18  85 SE5       30.39F WCI  16
BROWNLEE         N/A     23  17  77 S10         N/A  WCI  13
VALENTINE NWR    N/A     21  16  79 S7          N/A  WCI  12
SPRINGVIEW       N/A     18  16  90 NE3         N/A
BREWSTER         N/A     22  21  93 CALM        N/A
ROSE             N/A     26  26 100 E8          N/A  WCI  18
NEWPORT          N/A     28  27  96 S8          N/A  WCI  20
SARGENT          N/A     21  19  93 SE3         N/A
COMSTOCK         N/A     27  25  91 S12         N/A  WCI  17
CHAMBERS         N/A     18  14  83 S3          N/A
EWING            N/A     16  14  92 S3          N/A
$$

...OBSERVATIONS IN SOUTHWEST NEBRASKA AND FAR NORTHEAST COLORADO...

CITY           SKY/WX    TMP DP  RH WIND       PRES   REMARKS
WRAY           FAIR      32  24  72 SE3       30.31F
IMPERIAL       CLOUDY    29  21  72 S8        30.33F WCI  21
OGALLALA       CLOUDY    27  22  81 CALM      30.32F
NORTH PLATTE   MOCLDY    19  15  84 E5        30.37F WCI  12
MCCOOK         CLOUDY    21  16  81 CALM      30.39F
LEXINGTON      MOCLDY    24  20  84 SE6       30.41F WCI  17
BRADY            N/A     20  15  82 CALM        N/A
GOTHENBURG       N/A     20  14  76 CALM        N/A
CALLAWAY         N/A     26  22  84 S9          N/A  WCI  17
$$

...NORTH PLATTE AREA...

CITY           SKY/WX    TMP DP  RH WIND       PRES   REMARKS
AIRPORT        MOCLDY    19  15  84 E5        30.37F WCI  12
DOWNTOWN         N/A     21  17  85 CALM        N/A
$$

...SOME WEATHER OBSERVATIONS FROM AROUND THE REGION...

CITY           SKY/WX    TMP DP  RH WIND       PRES   REMARKS
DENVER         CLOUDY    31  24  75 W7        30.20F WCI  24
LARAMIE        CLOUDY    26  22  84 CALM      30.21F
CHEYENNE       CLOUDY    27  22  81 W7        30.20F WCI  19
SCOTTSBLUFF    CLOUDY    29  22  75 E8        30.24F WCI  21
RAPID CITY     PTCLDY    19  14  81 CALM      30.19F
PIERRE         CLEAR     20  18  92 SE10      30.29F WCI   9
WINNER         FAIR      26  20  77 S15       30.32F WCI  14
SIOUX FALLS    MOCLDY    19  15  84 S6        30.46F WCI  11
OMAHA          PTCLDY    19  17  92 CALM      30.53F
GRAND ISLAND   CLEAR     20  18  92 S7        30.48S WCI  11
KANSAS CITY    PTCLDY    20  18  92 NE6       30.52F WCI  12
WICHITA        MOCLDY    27  21  78 NE5       30.52S WCI  22
HAYS           PTCLDY    18   7  62 W3        30.47F
LIBERAL        CLOUDY    34  23  64 S5        30.46F WCI  30
GOODLAND       CLOUDY    29  22  75 S14       30.34F WCI  18
$$



USA.gov is the U.S. government's official web portal to all federal, state and local government web resources and services.